Location: *
(45.1961°N, 1.9694°E)
Time: 12:46:35
(UTC+00:00)

CZ-2C R/B - Pass Details

Date: 25 August 2019
Orbit: 640 x 705 km, 98.4° (Epoch: 16 September)

Event Time Altitude Azimuth Distance (km) Brightness Sun altitude
Rises 19:32:33 0° 11° (N) 3,073 7.3 -9.0°
Reaches altitude 10° 19:34:49 10° 9° (N) 2,143 6.5 -9.4°
Maximum altitude 19:39:29 70° 287° (WNW) 722 4.1 -10.1°
Drops below altitude 10° 19:44:01 10° 204° (SSW) 2,086 6.2 -10.8°
Sets 19:46:13 0° 202° (SSW) 2,984 7.0 -11.2°
